Starlink 11247

operational
NORAD ID: 60720 Int'l Des: 2024-152 Owner: SPXS Country: US Constellation: starlink
LEOCIRCULAR

Über Starlink 11247

Beschreibung wird geladen...

Live-Position

3D-Globus wird geladen...

Nächste Überflüge

Höhenverlauf

Altitude vs Time

uPlot chart will show altitude changes over time

Zweizeiliger Elementsatz

1 60720U 24152A 25259.69976813 -.00003336 00000-0 -22712-4 0 9996
2 60720 53.1604 254.2840 0000714 85.5398 274.5702 15.69693436 61502
Epoch: 16. Sept. 2025 • Age: 30 hours

Aktueller Status

Höhe 369.9 km
Geschwindigkeit 7.69 km/s
Subsatellitenpunkt -31.60°S, 116.83°E
Startdatum 28. Aug. 2024
Alter 1 years
Typ internet

Technische Details

Klassifizierung Payload
Masse 960.00 kg
Trockenmasse 910.00 kg
Gesamtmasse 960.00 kg
Länge 0.30 m
Durchmesser 4.10 m
Spannweite 29.00 m
Form Box + pan
Hersteller SPXS
Bus-Typ Starlink V2MD
Phasenstatus In Orbit
Besitzer/Staat SPXS/US

Große Konstellationen

Loading constellations...